Regional Weather Roundup
Issued by NWS

Home | Current Version | Previous Version | Graphics & Text | Print | Product List | Glossary On
Versions: 1 2 3 4 5 6 7 8 9 10 11 12 13 14 15 16 17 18 19 20 21 22 23 24 25 26 27 28 29 30 31 32 33 34 35 36 37 38 39 40 41 42 43 44 45 46 47 48 49 50
000
ASUS43 KFSD 280402
RWRSD

WEATHER ROUNDUP FOR SOUTH DAKOTA
NATIONAL WEATHER SERVICE SIOUX FALLS SD
1100 PM CDT THU AUG 27 2015

NOTE: "FAIR" INDICATES FEW OR NO CLOUDS BELOW 12,000 FEET WITH NO
SIGNIFICANT WEATHER AND/OR OBSTRUCTIONS TO VISIBILITY.


SDZ001>005-009-010-012>017-280500-
NORTHWEST AND NORTH CENTRAL SOUTH DAKOTA

CITY           SKY/WX    TMP DP  RH WIND       PRES   REMARKS
BUFFALO          N/A     66  57  72 E7        29.92R
FAITH            N/A     64  59  83 S9        29.97F
MOBRIDGE       MOCLDY    64  63  96 CALM      29.92S
$$

SDZ012>016-024>037-041>051-057-063-072>074-280500-
SOUTHWEST AND SOUTH CENTRAL SOUTH DAKOTA

CITY           SKY/WX    TMP DP  RH WIND       PRES   REMARKS
RAPID CTY ARPT PTCLDY    63  60  90 SW8       29.99F
PIERRE         CLOUDY    69  68  96 E3        29.91F
CUSTER         MOCLDY    59  51  75 W8        30.14F
ELLSWORTH AFB  PTCLDY    65  62  89 SW7       29.98F
PHILIP         CLEAR     63  62  97 NW5       29.96S
PINE RIDGE     CLEAR     57  54  89 CALM      30.04R
WINNER         CLOUDY    71  68  90 NE5       29.93R FOG
$$

SDZ004>011-016>023-039-040-280500-
NORTHEAST SOUTH DAKOTA

CITY           SKY/WX    TMP DP  RH WIND       PRES   REMARKS
ABERDEEN       MOCLDY    66  64  93 SE6       29.92F
WATERTOWN      CLOUDY    69  65  86 CALM      29.95F
BROOKINGS      CLOUDY    66  61  82 S10       29.95F
$$

SDZ017-020-022-023-036>040-048>070-280500-
SOUTHEAST SOUTH DAKOTA

CITY           SKY/WX    TMP DP  RH WIND       PRES   REMARKS
SIOUX FALLS    LGT RAIN  67  64  90 SE14G21   29.95F
HURON          CLOUDY    70  67  90 S8        29.90F
CHAMBERLAIN    CLOUDY    68  68  99 E6        29.92R
MITCHELL       LGT RAIN  67  65  93 SE10      29.93R
YANKTON        CLOUDY    66  64  94 E18G26    29.94R
$$

ABBREVIATIONS USED IN REMARKS
   TC - TEMPERATURE IN CELSIUS
  WCI - WIND CHILL INDEX
   HX - HEAT INDEX
  VSB - VISIBILITY



USA.gov is the U.S. government's official web portal to all federal, state and local government web resources and services.